����,���ϕ���(m/s),���ϕ���,�ő�u�ԕ���(m/s),�ő啗��������,�C��(��),���x(%),10���Ԉړ��ώZ�J��(mm),1���Ԉړ��ώZ�J��(mm),���J��(mm),�݌v�J��(mm),����(���ώZ)(MJ/m2),����(���ώZ)(min),���n�C��(hPa),�C�ʋC��(hPa)
2024-02-19T00:00:00+09:00,4,��,7.3,��,13.4,91.2,0,0,0,0,7.63,148,1011.4,1025.5
2024-02-19T00:01:00+09:00,4,��,7.3,��,13.4,91.3,0,0,0,0,0,0,1011.4,1025.5
2024-02-19T00:02:00+09:00,3.9,��,7.3,��,13.4,91.3,0,0,0,0,0,0,1011.4,1025.5
2024-02-19T00:03:00+09:00,3.8,��,7.3,��,13.4,91.4,0,0,0,0,0,0,1011.5,1025.6
2024-02-19T00:04:00+09:00,3.8,��,7.3,��,13.3,91.4,0,0,0,0,0,0,1011.4,1025.5
2024-02-19T00:05:00+09:00,3.6,��,7.2,��,13.3,91.4,0,0,0,0,0,0,1011.4,1025.5
2024-02-19T00:06:00+09:00,3.4,��,6,��,13.3,91.7,0,0,0,0,0,0,1011.4,1025.5
2024-02-19T00:07:00+09:00,3.2,��,6,��,13.4,91.8,0,0,0,0,0,0,1011.4,1025.5
2024-02-19T00:08:00+09:00,3.2,��,6.7,��,13.4,91.5,0,0,0,0,0,0,1011.4,1025.5
2024-02-19T00:09:00+09:00,3.2,��,6.7,��,13.4,91.4,0,0,0,0,0,0,1011.4,1025.5
2024-02-19T00:10:00+09:00,3.2,��,6.7,��,13.4,91.2,0,0,0,0,0,0,1011.4,1025.5
2024-02-19T00:11:00+09:00,3.2,��,6.7,��,13.4,91.3,0,0,0,0,0,0,1011.4,1025.5
2024-02-19T00:12:00+09:00,3.1,��,6.7,��,13.4,91.3,0,0,0,0,0,0,1011.4,1025.5
2024-02-19T00:13:00+09:00,3,��,6.7,��,13.4,91.3,0,0,0,0,0,0,1011.3,1025.4
2024-02-19T00:14:00+09:00,3,��,6.7,��,13.5,91.3,0,0,0,0,0,0,1011.3,1025.3
2024-02-19T00:15:00+09:00,3.2,��,6.9,��,13.5,91,0,0,0,0,0,0,1011.3,1025.3
2024-02-19T00:16:00+09:00,3.3,��,6.9,��,13.5,90.7,0,0,0,0,0,0,1011.3,1025.3
2024-02-19T00:17:00+09:00,3.5,��,6.9,��,13.3,90.5,0,0,0,0,0,0,1011.3,1025.4
2024-02-19T00:18:00+09:00,3.4,��,6.9,��,13.4,90.7,0,0,0,0,0,0,1011.3,1025.4
2024-02-19T00:19:00+09:00,3.2,��,6.9,��,13.4,90.8,0,0,0,0,0,0,1011.2,1025.3
2024-02-19T00:20:00+09:00,3.1,��,6.9,��,13.4,90.5,0,0,0,0,0,0,1011.2,1025.3
2024-02-19T00:21:00+09:00,3,��,6.9,��,13.4,90.5,0,0,0,0,0,0,1011.2,1025.3
2024-02-19T00:22:00+09:00,3.1,��,6.9,��,13.3,90.4,0,0,0,0,0,0,1011.2,1025.3
2024-02-19T00:23:00+09:00,3.2,��,6.9,��,13.4,90.6,0,0,0,0,0,0,1011.2,1025.3
2024-02-19T00:24:00+09:00,3.3,��,6.9,��,13.4,90.5,0,0,0,0,0,0,1011.1,1025.2
2024-02-19T00:25:00+09:00,3.3,��,6.8,��,13.3,90.4,0,0,0,0,0,0,1011.2,1025.3
2024-02-19T00:26:00+09:00,3.3,��,7.1,��쐼,13.4,90.5,0,0,0,0,0,0,1011.2,1025.3
2024-02-19T00:27:00+09:00,3.4,��쐼,7.1,��쐼,13.4,90.3,0,0,0,0,0,0,1011.2,1025.3
2024-02-19T00:28:00+09:00,3.5,��쐼,7.1,��쐼,13.4,90.2,0,0,0,0,0,0,1011.2,1025.3
2024-02-19T00:29:00+09:00,3.7,��쐼,7.1,��쐼,13.4,90.2,0,0,0,0,0,0,1011.1,1025.2
2024-02-19T00:30:00+09:00,3.8,��쐼,7.1,��쐼,13.3,90.2,0,0,0,0,0,0,1011.1,1025.2
2024-02-19T00:31:00+09:00,4.1,��쐼,7.9,��쐼,13.3,90.4,0,0,0,0,0,0,1011.1,1025.2
2024-02-19T00:32:00+09:00,4.2,��쐼,7.9,��쐼,13.4,90.4,0,0,0,0,0,0,1011.1,1025.2
2024-02-19T00:33:00+09:00,4.2,��쐼,7.9,��쐼,13.4,90.2,0,0,0,0,0,0,1011.1,1025.2
2024-02-19T00:34:00+09:00,4.2,��쐼,7.9,��쐼,13.4,90.1,0,0,0,0,0,0,1011.1,1025.2
2024-02-19T00:35:00+09:00,4.2,��쐼,7.9,��쐼,13.3,90.1,0,0,0,0,0,0,1011,1025.1
2024-02-19T00:36:00+09:00,4,��쐼,7.9,��쐼,13.3,90.1,0,0,0,0,0,0,1011.1,1025.2
2024-02-19T00:37:00+09:00,4,��쐼,7.9,��쐼,13.2,90.1,0,0,0,0,0,0,1011.1,1025.2
2024-02-19T00:38:00+09:00,3.9,��쐼,7.9,��쐼,13.2,90.2,0,0,0,0,0,0,1011,1025.1
2024-02-19T00:39:00+09:00,3.8,��쐼,7.9,��쐼,13.2,90.3,0,0,0,0,0,0,1011,1025.1
2024-02-19T00:40:00+09:00,3.8,��쐼,7.9,��쐼,13.2,90.4,0,0,0,0,0,0,1011,1025.1
2024-02-19T00:41:00+09:00,3.6,��,6.8,��쐼,13.2,90.5,0,0,0,0,0,0,1011,1025.1
2024-02-19T00:42:00+09:00,3.4,��,5.5,��,13.1,90.4,0,0,0,0,0,0,1011,1025.1
2024-02-19T00:43:00+09:00,3.3,��,5.5,��,13.1,90.4,0,0,0,0,0,0,1011,1025.1
2024-02-19T00:44:00+09:00,3.2,��,5.5,��,13,90.5,0,0,0,0,0,0,1011.1,1025.2
2024-02-19T00:45:00+09:00,3.1,��,5.5,��,13,90.4,0,0,0,0,0,0,1011.1,1025.2
2024-02-19T00:46:00+09:00,3,��,5.5,��,13,90.6,0,0,0,0,0,0,1011,1025.1
2024-02-19T00:47:00+09:00,2.9,��,5.1,��,13,90.6,0,0,0,0,0,0,1011,1025.1
2024-02-19T00:48:00+09:00,2.9,��,5.1,��,13,90.6,0,0,0,0,0,0,1011,1025.1
2024-02-19T00:49:00+09:00,2.9,��,4.7,��,13,90.7,0,0,0,0,0,0,1011,1025.1
2024-02-19T00:50:00+09:00,2.9,��,4.7,��,13,90.6,0,0,0,0,0,0,1011.1,1025.2
2024-02-19T00:51:00+09:00,2.8,��,4.9,��,13,90.5,0,0,0,0,0,0,1011,1025.1
2024-02-19T00:52:00+09:00,2.9,��,4.9,��,13,90.5,0,0,0,0,0,0,1011,1025.1
2024-02-19T00:53:00+09:00,2.9,��,4.9,��,12.9,90.7,0,0,0,0,0,0,1011,1025.1
2024-02-19T00:54:00+09:00,2.9,��,4.9,��,13,90.8,0,0,0,0,0,0,1011,1025.1
2024-02-19T00:55:00+09:00,2.9,��,4.9,��,12.9,90.8,0,0,0,0,0,0,1011,1025.1
2024-02-19T00:56:00+09:00,2.9,��,4.9,��,12.8,90.8,0,0,0,0,0,0,1011,1025.1
2024-02-19T00:57:00+09:00,2.9,��,4.9,��,12.8,90.8,0,0,0,0,0,0,1010.9,1025
2024-02-19T00:58:00+09:00,2.8,��,4.9,��,12.9,90.8,0,0,0,0,0,0,1010.8,1024.9
2024-02-19T00:59:00+09:00,2.8,��,4.9,��,12.8,90.9,0,0,0,0,0,0,1010.8,1024.9
2024-02-19T01:00:00+09:00,2.7,��,4.9,��,12.8,91,0,0,0,0,0,0,1010.8,1024.9
2024-02-19T01:01:00+09:00,2.7,��,4.6,��쐼,12.8,91,0,0,0,0,0,0,1010.8,1024.9
2024-02-19T01:02:00+09:00,2.7,��,4.6,��쐼,12.7,90.8,0,0,0,0,0,0,1010.8,1024.9
2024-02-19T01:03:00+09:00,2.5,��,4.6,��쐼,12.7,90.9,0,0,0,0,0,0,1010.8,1024.9
2024-02-19T01:04:00+09:00,2.4,��,4.6,��쐼,12.7,91,0,0,0,0,0,0,1010.8,1024.9
2024-02-19T01:05:00+09:00,2.3,��,4.6,��쐼,12.7,91.2,0,0,0,0,0,0,1010.8,1024.9
2024-02-19T01:06:00+09:00,2.2,��,4.6,��쐼,12.8,91.2,0,0,0,0,0,0,1010.8,1024.9
2024-02-19T01:07:00+09:00,2,��,4.3,��,12.7,90.8,0,0,0,0,0,0,1010.7,1024.8
2024-02-19T01:08:00+09:00,2,��,4.3,��,12.7,90.4,0,0,0,0,0,0,1010.8,1024.9
2024-02-19T01:09:00+09:00,1.8,��,4.3,��,12.7,90.1,0,0,0,0,0,0,1010.7,1024.8
2024-02-19T01:10:00+09:00,1.7,��,4.3,��,12.8,89.7,0,0,0,0,0,0,1010.7,1024.8
2024-02-19T01:11:00+09:00,1.5,��,3.7,��,12.7,89.4,0,0,0,0,0,0,1010.8,1024.9
2024-02-19T01:12:00+09:00,1.5,��,4.1,��,12.8,89.8,0,0,0,0,0,0,1010.8,1024.9
2024-02-19T01:13:00+09:00,1.5,��,4.1,��,12.9,90,0,0,0,0,0,0,1010.8,1024.9
2024-02-19T01:14:00+09:00,1.5,��,4.1,��,12.7,89.3,0,0,0,0,0,0,1010.7,1024.8
2024-02-19T01:15:00+09:00,1.4,��,4.1,��,12.7,89,0,0,0,0,0,0,1010.7,1024.8
2024-02-19T01:16:00+09:00,1.4,��,4.1,��,12.7,88.3,0,0,0,0,0,0,1010.7,1024.8
2024-02-19T01:17:00+09:00,1.4,��,4.1,��,12.7,88.4,0,0,0,0,0,0,1010.7,1024.8
2024-02-19T01:18:00+09:00,1.2,��,4.1,��,12.6,88.4,0,0,0,0,0,0,1010.7,1024.8
2024-02-19T01:19:00+09:00,1.4,��,4.1,��,12.8,88.2,0,0,0,0,0,0,1010.7,1024.8
2024-02-19T01:20:00+09:00,1.5,��,4.1,��,12.8,88.1,0,0,0,0,0,0,1010.7,1024.8
2024-02-19T01:21:00+09:00,1.5,��,4.1,��,12.7,88,0,0,0,0,0,0,1010.7,1024.8
2024-02-19T01:22:00+09:00,1.4,��,4,��,12.6,88.5,0,0,0,0,0,0,1010.8,1024.9
2024-02-19T01:23:00+09:00,1.5,��,4,��,12.5,88.8,0,0,0,0,0,0,1010.8,1024.9
2024-02-19T01:24:00+09:00,1.5,��,4,��,12.6,88.9,0,0,0,0,0,0,1010.8,1024.9
2024-02-19T01:25:00+09:00,1.6,��,4,��,12.6,89.3,0,0,0,0,0,0,1010.8,1024.9
2024-02-19T01:26:00+09:00,1.6,��,4,��,12.5,89.5,0,0,0,0,0,0,1010.8,1024.9
2024-02-19T01:27:00+09:00,1.6,��,4,��,12.5,89.5,0,0,0,0,0,0,1010.7,1024.8
2024-02-19T01:28:00+09:00,1.7,��,4,��,12.5,89.2,0,0,0,0,0,0,1010.7,1024.8
2024-02-19T01:29:00+09:00,1.7,��,3.6,��,12.5,89.5,0,0,0,0,0,0,1010.7,1024.8
2024-02-19T01:30:00+09:00,1.6,��,3.5,��,12.5,89.5,0,0,0,0,0,0,1010.6,1024.7
2024-02-19T01:31:00+09:00,1.6,��,3.5,��,12.5,89.6,0,0,0,0,0,0,1010.6,1024.7
2024-02-19T01:32:00+09:00,1.5,��,3.5,��,12.5,89.3,0,0,0,0,0,0,1010.5,1024.6
2024-02-19T01:33:00+09:00,1.4,��,3.5,��,12.6,88.7,0,0,0,0,0,0,1010.5,1024.6
2024-02-19T01:34:00+09:00,1.3,��쓌,3.5,��,12.6,88.1,0,0,0,0,0,0,1010.5,1024.6
2024-02-19T01:35:00+09:00,1.2,��쓌,3.5,��,12.5,87.5,0,0,0,0,0,0,1010.4,1024.5
2024-02-19T01:36:00+09:00,1.2,��쓌,3.5,��,12.7,87.6,0,0,0,0,0,0,1010.5,1024.6
2024-02-19T01:37:00+09:00,1.2,��쓌,3.5,��,12.7,87.1,0,0,0,0,0,0,1010.4,1024.5
2024-02-19T01:38:00+09:00,1.1,��쓌,3.5,��,12.6,87,0,0,0,0,0,0,1010.4,1024.5
2024-02-19T01:39:00+09:00,1,��쓌,3.4,��,12.6,86.9,0,0,0,0,0,0,1010.4,1024.5
2024-02-19T01:40:00+09:00,0.9,��쓌,3.4,��,12.6,86.8,0,0,0,0,0,0,1010.4,1024.5
2024-02-19T01:41:00+09:00,0.9,��,3.4,��,12.7,86.8,0,0,0,0,0,0,1010.4,1024.5
2024-02-19T01:42:00+09:00,1,��,3.4,��,12.6,86.6,0,0,0,0,0,0,1010.5,1024.6
2024-02-19T01:43:00+09:00,1,��,3.4,��,12.6,86.5,0,0,0,0,0,0,1010.4,1024.5
2024-02-19T01:44:00+09:00,1,��,3.1,��,12.5,86.5,0,0,0,0,0,0,1010.4,1024.5
2024-02-19T01:45:00+09:00,1,��,3.1,��,12.6,86.3,0,0,0,0,0,0,1010.5,1024.6
2024-02-19T01:46:00+09:00,1.1,��,3.1,��,12.6,86.1,0,0,0,0,0,0,1010.4,1024.5
2024-02-19T01:47:00+09:00,1.1,��,3.1,��,12.6,85.6,0,0,0,0,0,0,1010.5,1024.6
2024-02-19T01:48:00+09:00,1.1,��,3.1,��,12.6,85.8,0,0,0,0,0,0,1010.4,1024.5
2024-02-19T01:49:00+09:00,1.1,��,3.1,��,12.7,85.4,0,0,0,0,0,0,1010.4,1024.5
2024-02-19T01:50:00+09:00,1.1,��,3.1,��,12.6,84.9,0,0,0,0,0,0,1010.4,1024.5
2024-02-19T01:51:00+09:00,1.2,��,4.7,��,12.7,84.9,0,0,0,0,0,0,1010.4,1024.5
2024-02-19T01:52:00+09:00,1.4,��,4.7,��,12.7,84.7,0,0,0,0,0,0,1010.4,1024.5
2024-02-19T01:53:00+09:00,1.4,��,4.7,��,12.5,84.9,0,0,0,0,0,0,1010.4,1024.5
2024-02-19T01:54:00+09:00,1.4,��,4.7,��,12.6,85,0,0,0,0,0,0,1010.4,1024.5
2024-02-19T01:55:00+09:00,1.5,��,4.7,��,12.6,84.8,0,0,0,0,0,0,1010.4,1024.5
2024-02-19T01:56:00+09:00,1.5,��,4.7,��,12.6,84.4,0,0,0,0,0,0,1010.4,1024.5
2024-02-19T01:57:00+09:00,1.6,��,4.7,��,12.6,84.1,0,0,0,0,0,0,1010.3,1024.4
2024-02-19T01:58:00+09:00,1.7,��,4.7,��,12.8,83,0,0,0,0,0,0,1010.3,1024.4
2024-02-19T01:59:00+09:00,1.7,��,4.7,��,12.8,82.4,0,0,0,0,0,0,1010.3,1024.4
2024-02-19T02:00:00+09:00,1.9,��,4.7,��,12.8,82.2,0,0,0,0,0,0,1010.3,1024.4
2024-02-19T02:01:00+09:00,1.9,��,4.7,��,12.8,81.9,0,0,0,0,0,0,1010.3,1024.4
2024-02-19T02:02:00+09:00,1.9,��,4.7,��,12.8,81.8,0,0,0,0,0,0,1010.3,1024.4
2024-02-19T02:03:00+09:00,2.1,��,4.7,��,12.8,81.6,0,0,0,0,0,0,1010.3,1024.4
2024-02-19T02:04:00+09:00,2.3,��,4.7,��,12.8,81.4,0,0,0,0,0,0,1010.3,1024.4
2024-02-19T02:05:00+09:00,2.6,��,5.6,��,13.1,80.5,0,0,0,0,0,0,1010.3,1024.4
2024-02-19T02:06:00+09:00,2.9,��,5.9,��,13.3,79.3,0,0,0,0,0,0,1010.2,1024.2
2024-02-19T02:07:00+09:00,3,��,5.9,��,13.2,78.7,0,0,0,0,0,0,1010.3,1024.4
2024-02-19T02:08:00+09:00,3.2,��,5.9,��,13.1,78.9,0,0,0,0,0,0,1010.4,1024.5
2024-02-19T02:09:00+09:00,3.4,��,5.9,��,13.2,78.6,0,0,0,0,0,0,1010.4,1024.5
2024-02-19T02:10:00+09:00,3.5,��,5.9,��,13.2,78.2,0,0,0,0,0,0,1010.4,1024.5
2024-02-19T02:11:00+09:00,3.6,��,5.9,��,13.2,78.1,0,0,0,0,0,0,1010.4,1024.5
2024-02-19T02:12:00+09:00,3.8,��,5.9,��,13.1,78.2,0,0,0,0,0,0,1010.4,1024.5
2024-02-19T02:13:00+09:00,3.9,��,6.3,��쐼,13.2,77.9,0,0,0,0,0,0,1010.3,1024.4
2024-02-19T02:14:00+09:00,4.1,��,6.3,��쐼,13.2,77.6,0,0,0,0,0,0,1010.3,1024.4
2024-02-19T02:15:00+09:00,4.1,��,6.3,��쐼,13.3,77,0,0,0,0,0,0,1010.3,1024.3
2024-02-19T02:16:00+09:00,4.1,��,6.3,��쐼,13.2,77,0,0,0,0,0,0,1010.3,1024.4
2024-02-19T02:17:00+09:00,4.1,��,6.3,��쐼,13.2,77.2,0,0,0,0,0,0,1010.3,1024.4
2024-02-19T02:18:00+09:00,4.1,��쐼,6.3,��쐼,13.2,77,0,0,0,0,0,0,1010.3,1024.4
2024-02-19T02:19:00+09:00,4.1,��쐼,6.3,��쐼,13.2,76.8,0,0,0,0,0,0,1010.4,1024.5
2024-02-19T02:20:00+09:00,4.1,��쐼,6.3,��쐼,13.3,76.7,0,0,0,0,0,0,1010.4,1024.4
2024-02-19T02:21:00+09:00,4.1,��쐼,6.3,��쐼,13.3,76.7,0,0,0,0,0,0,1010.3,1024.3
2024-02-19T02:22:00+09:00,3.9,��쐼,6.3,��쐼,13.1,76.7,0,0,0,0,0,0,1010.3,1024.4
2024-02-19T02:23:00+09:00,3.7,��쐼,6.3,��쐼,13.1,77,0,0,0,0,0,0,1010.2,1024.3
2024-02-19T02:24:00+09:00,3.4,��,5.6,��쐼,12.9,77.6,0,0,0,0,0,0,1010.1,1024.2
2024-02-19T02:25:00+09:00,3.2,��,5.4,��쐼,12.9,78,0,0,0,0,0,0,1010.1,1024.2
2024-02-19T02:26:00+09:00,3,��,5.4,��쐼,12.8,78.4,0,0,0,0,0,0,1010.1,1024.2
2024-02-19T02:27:00+09:00,2.9,��,5.4,��쐼,12.8,78.7,0,0,0,0,0,0,1010.1,1024.2
2024-02-19T02:28:00+09:00,2.8,��,5.4,��쐼,12.8,78.7,0,0,0,0,0,0,1010,1024.1
2024-02-19T02:29:00+09:00,2.7,��,5.4,��쐼,12.9,78.6,0,0,0,0,0,0,1009.9,1024
2024-02-19T02:30:00+09:00,2.7,��,4.9,��,12.9,78.5,0,0,0,0,0,0,1009.9,1024
2024-02-19T02:31:00+09:00,2.7,��,5.4,��,13,78,0,0,0,0,0,0,1009.9,1024
2024-02-19T02:32:00+09:00,2.9,��,5.7,��,13,77.9,0,0,0,0,0,0,1009.8,1023.9
2024-02-19T02:33:00+09:00,3,��,5.7,��,13,77.8,0,0,0,0,0,0,1009.7,1023.8
2024-02-19T02:34:00+09:00,3.2,��,5.7,��,13,77.8,0,0,0,0,0,0,1009.7,1023.8
2024-02-19T02:35:00+09:00,3.3,��,5.7,��,13,77.6,0,0,0,0,0,0,1009.7,1023.8
2024-02-19T02:36:00+09:00,3.5,��,5.7,��,13,77.2,0,0,0,0,0,0,1009.7,1023.8
2024-02-19T02:37:00+09:00,3.7,��,5.7,��,13,77.1,0,0,0,0,0,0,1009.7,1023.8
2024-02-19T02:38:00+09:00,3.7,��,5.7,��,13,76.9,0,0,0,0,0,0,1009.7,1023.8
2024-02-19T02:39:00+09:00,3.7,��,5.7,��,13,76.9,0,0,0,0,0,0,1009.6,1023.7
2024-02-19T02:40:00+09:00,3.8,��쐼,5.7,��,13.1,76.6,0,0,0,0,0,0,1009.6,1023.6
2024-02-19T02:41:00+09:00,3.7,��쐼,5.7,��,13.1,76.3,0,0,0,0,0,0,1009.6,1023.6
2024-02-19T02:42:00+09:00,3.6,��쐼,5.6,��쐼,13.1,76.2,0,0,0,0,0,0,1009.5,1023.5
2024-02-19T02:43:00+09:00,3.7,��쐼,5.6,��쐼,13.1,76.2,0,0,0,0,0,0,1009.5,1023.5
2024-02-19T02:44:00+09:00,3.6,��쐼,5.6,��쐼,13.1,76.1,0,0,0,0,0,0,1009.5,1023.5
2024-02-19T02:45:00+09:00,3.6,��쐼,5.6,��쐼,13.1,75.9,0,0,0,0,0,0,1009.5,1023.5
2024-02-19T02:46:00+09:00,3.6,��쐼,5.6,��쐼,13.1,75.7,0,0,0,0,0,0,1009.5,1023.5
2024-02-19T02:47:00+09:00,3.6,��쐼,6,��,13.1,75.4,0,0,0,0,0,0,1009.4,1023.4
2024-02-19T02:48:00+09:00,3.7,��쐼,6,��,13.3,74.5,0,0,0,0,0,0,1009.5,1023.5
2024-02-19T02:49:00+09:00,3.8,��쐼,6,��,13.4,73.9,0,0,0,0,0,0,1009.5,1023.5
2024-02-19T02:50:00+09:00,3.8,��쐼,6,��,13.5,73.2,0,0,0,0,0,0,1009.5,1023.5
2024-02-19T02:51:00+09:00,3.8,��쐼,6,��,13.5,72.8,0,0,0,0,0,0,1009.5,1023.5
2024-02-19T02:52:00+09:00,3.7,��쐼,6,��,13.4,72.7,0,0,0,0,0,0,1009.5,1023.5
2024-02-19T02:53:00+09:00,3.6,��쐼,6,��,13.4,72.6,0,0,0,0,0,0,1009.5,1023.5
2024-02-19T02:54:00+09:00,3.5,��쐼,6,��,13.4,72.6,0,0,0,0,0,0,1009.5,1023.5
2024-02-19T02:55:00+09:00,3.4,��,6,��,13.3,72.8,0,0,0,0,0,0,1009.6,1023.6
2024-02-19T02:56:00+09:00,3.4,��,6,��,13.2,73.3,0,0,0,0,0,0,1009.6,1023.6
2024-02-19T02:57:00+09:00,3.1,��,5.8,��,12.9,74,0,0,0,0,0,0,1009.6,1023.7
2024-02-19T02:58:00+09:00,2.9,��,5.6,��,12.8,74.8,0,0,0,0,0,0,1009.5,1023.6
2024-02-19T02:59:00+09:00,2.6,��,5.6,��,12.7,75.3,0,0,0,0,0,0,1009.5,1023.6
2024-02-19T03:00:00+09:00,2.5,��,5.6,��,12.7,75.6,0,0,0,0,0,0,1009.5,1023.6
2024-02-19T03:01:00+09:00,2.6,��,5.9,��쓌,13.1,74.9,0,0,0,0,0,0,1009.5,1023.5
2024-02-19T03:02:00+09:00,2.5,��,5.9,��쓌,13.1,74.4,0,0,0,0,0,0,1009.5,1023.5
2024-02-19T03:03:00+09:00,2.3,��,5.9,��쓌,12.9,75,0,0,0,0,0,0,1009.4,1023.5
2024-02-19T03:04:00+09:00,2.2,��,5.9,��쓌,12.7,75.5,0,0,0,0,0,0,1009.4,1023.5
2024-02-19T03:05:00+09:00,2.1,��,5.9,��쓌,12.7,75.8,0,0,0,0,0,0,1009.4,1023.5
2024-02-19T03:06:00+09:00,1.9,��,5.9,��쓌,12.7,76,0,0,0,0,0,0,1009.4,1023.5
2024-02-19T03:07:00+09:00,1.9,��,5.9,��쓌,12.7,76,0,0,0,0,0,0,1009.4,1023.5
2024-02-19T03:08:00+09:00,1.9,��,5.9,��쓌,12.8,75.9,0,0,0,0,0,0,1009.4,1023.5
2024-02-19T03:09:00+09:00,2,��,5.9,��쓌,12.8,75.6,0,0,0,0,0,0,1009.3,1023.4
2024-02-19T03:10:00+09:00,2,��,5.9,��쓌,12.9,75.4,0,0,0,0,0,0,1009.4,1023.5
2024-02-19T03:11:00+09:00,1.8,��,4.4,��쐼,12.8,75.4,0,0,0,0,0,0,1009.4,1023.5
2024-02-19T03:12:00+09:00,1.8,��,3.6,��,12.7,75.6,0,0,0,0,0,0,1009.4,1023.5
2024-02-19T03:13:00+09:00,2,��,3.7,��,12.7,75.7,0,0,0,0,0,0,1009.4,1023.5
2024-02-19T03:14:00+09:00,2.1,��,3.7,��,12.8,75.6,0,0,0,0,0,0,1009.4,1023.5
2024-02-19T03:15:00+09:00,2.3,��,4,��,12.9,75.4,0,0,0,0,0,0,1009.4,1023.5
2024-02-19T03:16:00+09:00,2.5,��,4,��,12.9,75.4,0,0,0,0,0,0,1009.3,1023.4
2024-02-19T03:17:00+09:00,2.5,��,4,��,12.8,75.4,0,0,0,0,0,0,1009.4,1023.5
2024-02-19T03:18:00+09:00,2.5,��,4,��,12.9,75.4,0,0,0,0,0,0,1009.3,1023.4
2024-02-19T03:19:00+09:00,2.6,��,4,��,12.9,75.3,0,0,0,0,0,0,1009.3,1023.4
2024-02-19T03:20:00+09:00,2.7,��,4.3,��,13,74.9,0,0,0,0,0,0,1009.3,1023.3
2024-02-19T03:21:00+09:00,2.7,��,4.3,��,12.9,74.9,0,0,0,0,0,0,1009.3,1023.4
2024-02-19T03:22:00+09:00,2.8,��,4.3,��,12.9,74.9,0,0,0,0,0,0,1009.3,1023.4
2024-02-19T03:23:00+09:00,2.8,��,4.6,��,13.1,74.4,0,0,0,0,0,0,1009.3,1023.3
2024-02-19T03:24:00+09:00,2.9,��,5.4,��쐼,13.5,72.9,0,0,0,0,0,0,1009.3,1023.3
2024-02-19T03:25:00+09:00,2.8,��,5.4,��쐼,13.4,72.6,0,0,0,0,0,0,1009.3,1023.3
2024-02-19T03:26:00+09:00,2.7,��,5.4,��쐼,13.3,72.9,0,0,0,0,0,0,1009.3,1023.3
2024-02-19T03:27:00+09:00,2.7,��,5.4,��쐼,13.2,72.9,0,0,0,0,0,0,1009.3,1023.3
2024-02-19T03:28:00+09:00,2.9,��,5.7,��쐼,13.6,71.8,0,0,0,0,0,0,1009.4,1023.4
2024-02-19T03:29:00+09:00,2.8,��,5.7,��쐼,13.5,71.7,0,0,0,0,0,0,1009.4,1023.4
2024-02-19T03:30:00+09:00,2.8,��,5.7,��쐼,13.4,72,0,0,0,0,0,0,1009.4,1023.4
2024-02-19T03:31:00+09:00,2.9,��,5.7,��쐼,13.4,71.8,0,0,0,0,0,0,1009.3,1023.3
2024-02-19T03:32:00+09:00,2.9,��,5.7,��쐼,13.4,71.8,0,0,0,0,0,0,1009.3,1023.3
2024-02-19T03:33:00+09:00,2.9,��,5.7,��쐼,13.4,72,0,0,0,0,0,0,1009.2,1023.2
2024-02-19T03:34:00+09:00,2.8,��,5.7,��쐼,13.4,71.8,0,0,0,0,0,0,1009.2,1023.2
2024-02-19T03:35:00+09:00,2.9,��,5.7,��쐼,13.3,72,0,0,0,0,0,0,1009.3,1023.3
2024-02-19T03:36:00+09:00,3,��,5.7,��쐼,13.2,72.8,0,0,0,0,0,0,1009.3,1023.3
2024-02-19T03:37:00+09:00,3,��,5.7,��쐼,13.3,72.6,0,0,0,0,0,0,1009.3,1023.3
2024-02-19T03:38:00+09:00,3,��,5.3,��쐼,13.4,72.2,0,0,0,0,0,0,1009.3,1023.3
2024-02-19T03:39:00+09:00,3.1,��,5.3,��쐼,13.4,72.1,0,0,0,0,0,0,1009.3,1023.3
2024-02-19T03:40:00+09:00,3.1,��,5.7,��,13.4,72.1,0,0,0,0,0,0,1009.2,1023.2
2024-02-19T03:41:00+09:00,3.1,��,5.7,��,13.4,72,0,0,0,0,0,0,1009.3,1023.3
2024-02-19T03:42:00+09:00,3.3,��,5.7,��,13.4,72.1,0,0,0,0,0,0,1009.3,1023.3
2024-02-19T03:43:00+09:00,3.3,��,5.7,��,13.3,72.4,0,0,0,0,0,0,1009.3,1023.3
2024-02-19T03:44:00+09:00,3.3,��,5.7,��,13.3,72.6,0,0,0,0,0,0,1009.2,1023.2
2024-02-19T03:45:00+09:00,3.5,��,5.7,��,13.4,72.4,0,0,0,0,0,0,1009.1,1023.1
2024-02-19T03:46:00+09:00,3.5,��,5.7,��,13.4,72.3,0,0,0,0,0,0,1009.1,1023.1
2024-02-19T03:47:00+09:00,3.4,��,5.7,��,13.3,72.4,0,0,0,0,0,0,1009.1,1023.1
2024-02-19T03:48:00+09:00,3.4,��,5.7,��,13.3,72.5,0,0,0,0,0,0,1009.1,1023.1
2024-02-19T03:49:00+09:00,3.4,��,5.7,��,13.3,72.5,0,0,0,0,0,0,1009.2,1023.2
2024-02-19T03:50:00+09:00,3.4,��,5.4,��쐼,13.3,72.5,0,0,0,0,0,0,1009.2,1023.2
2024-02-19T03:51:00+09:00,3.4,��,5.5,��,13.4,72.4,0,0,0,0,0,0,1009.2,1023.2
2024-02-19T03:52:00+09:00,3.3,��,5.5,��,13.4,72.3,0,0,0,0,0,0,1009.2,1023.2
2024-02-19T03:53:00+09:00,3.3,��,5.5,��,13.5,71.9,0,0,0,0,0,0,1009.2,1023.2
2024-02-19T03:54:00+09:00,3.3,��,5.5,��,13.5,71.6,0,0,0,0,0,0,1009.2,1023.2
2024-02-19T03:55:00+09:00,3.3,��,5.5,��,13.5,71.5,0,0,0,0,0,0,1009.1,1023.1
2024-02-19T03:56:00+09:00,3.4,��,5.5,��,13.6,71.1,0,0,0,0,0,0,1009.1,1023.1
2024-02-19T03:57:00+09:00,3.4,��,5.5,��,13.6,70.9,0,0,0,0,0,0,1009.1,1023.1
2024-02-19T03:58:00+09:00,3.4,��,5.5,��,13.6,70.7,0,0,0,0,0,0,1009.1,1023.1
2024-02-19T03:59:00+09:00,3.6,��,5.5,��,13.6,70.4,0,0,0,0,0,0,1009.2,1023.2
2024-02-19T04:00:00+09:00,3.6,��,5.5,��,13.8,69.7,0,0,0,0,0,0,1009.2,1023.2
2024-02-19T04:01:00+09:00,3.7,��쐼,6.4,��,13.9,69.1,0,0,0,0,0,0,1009.2,1023.2
2024-02-19T04:02:00+09:00,3.8,��쐼,6.4,��,13.9,68.7,0,0,0,0,0,0,1009.2,1023.2
2024-02-19T04:03:00+09:00,3.8,��,6.4,��,13.9,68.5,0,0,0,0,0,0,1009.2,1023.2
2024-02-19T04:04:00+09:00,3.8,��,6.4,��,14,68,0,0,0,0,0,0,1009.2,1023.2
2024-02-19T04:05:00+09:00,3.9,��,6.4,��,14,67.9,0,0,0,0,0,0,1009.1,1023.1
2024-02-19T04:06:00+09:00,3.9,��,6.4,��,14.1,67.2,0,0,0,0,0,0,1009,1023
2024-02-19T04:07:00+09:00,3.9,��,6.4,��,14,67.3,0,0,0,0,0,0,1009,1023
2024-02-19T04:08:00+09:00,3.7,��,6.4,��,13.8,68.1,0,0,0,0,0,0,1009,1023
2024-02-19T04:09:00+09:00,3.6,��,6.4,��,13.6,68.8,0,0,0,0,0,0,1009.1,1023.1
2024-02-19T04:10:00+09:00,3.5,��,6.4,��,13.6,69.1,0,0,0,0,0,0,1009.1,1023.1
2024-02-19T04:11:00+09:00,3.4,��,6,��,13.6,69,0,0,0,0,0,0,1009.1,1023.1
2024-02-19T04:12:00+09:00,3.4,��,6,��,13.7,68.9,0,0,0,0,0,0,1009.1,1023.1
2024-02-19T04:13:00+09:00,3.4,��,6,��,13.8,68.6,0,0,0,0,0,0,1009.1,1023.1
2024-02-19T04:14:00+09:00,3.3,��,6,��,13.9,68.3,0,0,0,0,0,0,1009.1,1023.1
2024-02-19T04:15:00+09:00,3.2,��,6,��,13.9,68.2,0,0,0,0,0,0,1009.2,1023.2
2024-02-19T04:16:00+09:00,3.1,��,5,��쐼,13.9,68,0,0,0,0,0,0,1009.1,1023.1
2024-02-19T04:17:00+09:00,3.1,��,5.1,��,13.9,68,0,0,0,0,0,0,1009.1,1023.1
2024-02-19T04:18:00+09:00,3.4,��쐼,5.1,��,14,67.8,0,0,0,0,0,0,1009.1,1023.1
2024-02-19T04:19:00+09:00,3.6,��쐼,5.6,��,14,67.2,0,0,0,0,0,0,1009.1,1023.1
2024-02-19T04:20:00+09:00,3.6,��쐼,5.6,��,14.1,66.7,0,0,0,0,0,0,1009.1,1023.1
2024-02-19T04:21:00+09:00,3.6,��쐼,5.6,��,14.1,66.5,0,0,0,0,0,0,1009.1,1023.1
2024-02-19T04:22:00+09:00,3.6,��쐼,5.8,��쐼,14.1,66.3,0,0,0,0,0,0,1009,1023
2024-02-19T04:23:00+09:00,3.7,��쐼,5.8,��쐼,14.2,66,0,0,0,0,0,0,1009,1023
2024-02-19T04:24:00+09:00,3.7,��쐼,5.8,��쐼,14.3,65.7,0,0,0,0,0,0,1009,1023
2024-02-19T04:25:00+09:00,3.7,��쐼,5.8,��쐼,14.3,65.3,0,0,0,0,0,0,1009,1023
2024-02-19T04:26:00+09:00,3.8,��쐼,5.8,��쐼,14.3,65.2,0,0,0,0,0,0,1009.1,1023.1
2024-02-19T04:27:00+09:00,3.9,��쐼,6.8,��쐼,14.3,65,0,0,0,0,0,0,1009.1,1023.1
2024-02-19T04:28:00+09:00,3.8,��쐼,6.8,��쐼,14.4,64.9,0,0,0,0,0,0,1009.1,1023.1
2024-02-19T04:29:00+09:00,3.7,��쐼,6.8,��쐼,14.5,64.3,0,0,0,0,0,0,1009.1,1023.1
2024-02-19T04:30:00+09:00,3.8,��쐼,6.8,��쐼,14.5,64,0,0,0,0,0,0,1009.1,1023.1
2024-02-19T04:31:00+09:00,3.9,��쐼,6.8,��쐼,14.6,63.7,0,0,0,0,0,0,1009.1,1023.1
2024-02-19T04:32:00+09:00,3.9,��쐼,6.8,��쐼,14.5,63.7,0,0,0,0,0,0,1009.1,1023.1
2024-02-19T04:33:00+09:00,4,��쐼,6.8,��쐼,14.5,63.8,0,0,0,0,0,0,1009.2,1023.2
2024-02-19T04:34:00+09:00,3.9,��쐼,6.8,��쐼,14.5,63.8,0,0,0,0,0,0,1009.2,1023.2
2024-02-19T04:35:00+09:00,4,��쐼,6.8,��쐼,14.4,64.1,0,0,0,0,0,0,1009.1,1023.1
2024-02-19T04:36:00+09:00,4,��쐼,6.8,��쐼,14.4,64.3,0,0,0,0,0,0,1009.1,1023.1
2024-02-19T04:37:00+09:00,3.9,��쐼,6.8,��,14.3,64.5,0,0,0,0,0,0,1009.1,1023.1
2024-02-19T04:38:00+09:00,3.9,��쐼,6.8,��,14.3,64.8,0,0,0,0,0,0,1009.1,1023.1
2024-02-19T04:39:00+09:00,4,��쐼,6.8,��,14.3,65,0,0,0,0,0,0,1009.1,1023.1
2024-02-19T04:40:00+09:00,3.9,��쐼,6.7,��쐼,14.2,65.2,0,0,0,0,0,0,1009.1,1023.1
2024-02-19T04:41:00+09:00,3.8,��쐼,6.5,��쐼,14.2,65.4,0,0,0,0,0,0,1009,1023
2024-02-19T04:42:00+09:00,3.8,��쐼,6.5,��쐼,14.2,65.5,0,0,0,0,0,0,1009,1023
2024-02-19T04:43:00+09:00,3.8,��쐼,6.2,�쐼,14.2,65.6,0,0,0,0,0,0,1009,1023
2024-02-19T04:44:00+09:00,3.9,��쐼,6.5,��쐼,14.2,65.8,0,0,0,0,0,0,1009,1023
2024-02-19T04:45:00+09:00,4,��쐼,6.5,��쐼,14.2,65.8,0,0,0,0,0,0,1009,1023
2024-02-19T04:46:00+09:00,4,��쐼,6.5,��쐼,14.2,65.9,0,0,0,0,0,0,1008.9,1022.9
2024-02-19T04:47:00+09:00,4.1,��쐼,6.5,��쐼,14.2,65.9,0,0,0,0,0,0,1008.9,1022.9
2024-02-19T04:48:00+09:00,4.3,��쐼,6.6,��쐼,14.4,65.5,0,0,0,0,0,0,1008.8,1022.8
2024-02-19T04:49:00+09:00,4.3,��쐼,6.6,��쐼,14.3,65.4,0,0,0,0,0,0,1008.9,1022.9
2024-02-19T04:50:00+09:00,4.3,��쐼,6.6,��쐼,14.3,65.5,0,0,0,0,0,0,1008.8,1022.8
2024-02-19T04:51:00+09:00,4.4,��쐼,6.6,��쐼,14.3,65.4,0,0,0,0,0,0,1008.8,1022.8
2024-02-19T04:52:00+09:00,4.5,��쐼,6.6,��쐼,14.3,65.5,0,0,0,0,0,0,1008.8,1022.8
2024-02-19T04:53:00+09:00,4.5,��쐼,6.6,��쐼,14.3,65.5,0,0,0,0,0,0,1008.8,1022.8
2024-02-19T04:54:00+09:00,4.5,��쐼,6.6,��쐼,14.3,65.5,0,0,0,0,0,0,1008.8,1022.8
2024-02-19T04:55:00+09:00,4.6,��쐼,6.6,��쐼,14.4,65.5,0,0,0,0,0,0,1008.7,1022.7
2024-02-19T04:56:00+09:00,4.7,��쐼,6.6,��쐼,14.3,65.6,0,0,0,0,0,0,1008.8,1022.8
2024-02-19T04:57:00+09:00,4.6,��쐼,6.6,��쐼,14.3,65.6,0,0,0,0,0,0,1008.7,1022.7
2024-02-19T04:58:00+09:00,4.4,��쐼,6.4,��,14.2,65.9,0,0,0,0,0,0,1008.7,1022.7
2024-02-19T04:59:00+09:00,4.4,��쐼,6.4,��,14.2,66,0,0,0,0,0,0,1008.7,1022.7
2024-02-19T05:00:00+09:00,4.4,��쐼,6.7,��쐼,14.2,66.2,0,0,0,0,0,0,1008.8,1022.8
2024-02-19T05:01:00+09:00,4.4,��쐼,7.1,��쐼,14.2,66.1,0,0,0,0,0,0,1008.7,1022.7
2024-02-19T05:02:00+09:00,4.3,��쐼,7.1,��쐼,14.3,66.2,0,0,0,0,0,0,1008.7,1022.7
2024-02-19T05:03:00+09:00,4.4,��쐼,7.1,��쐼,14.3,66,0,0,0,0,0,0,1008.7,1022.7
2024-02-19T05:04:00+09:00,4.3,��쐼,7.1,��쐼,14.3,65.9,0,0,0,0,0,0,1008.7,1022.7
2024-02-19T05:05:00+09:00,4.3,��쐼,7.1,��쐼,14.4,65.9,0,0,0,0,0,0,1008.8,1022.8
2024-02-19T05:06:00+09:00,4.3,��쐼,7.1,��쐼,14.4,66,0,0,0,0,0,0,1008.8,1022.8
2024-02-19T05:07:00+09:00,4.3,��쐼,7.1,��쐼,14.3,66,0,0,0,0,0,0,1008.8,1022.8
2024-02-19T05:08:00+09:00,4.5,��쐼,7.1,��쐼,14.4,66,0,0,0,0,0,0,1008.8,1022.8
2024-02-19T05:09:00+09:00,4.6,��쐼,7.1,��쐼,14.4,66,0,0,0,0,0,0,1008.8,1022.8
2024-02-19T05:10:00+09:00,4.5,��쐼,7.1,��쐼,14.3,66.2,0,0,0,0,0,0,1008.8,1022.8
2024-02-19T05:11:00+09:00,4.6,��쐼,6.8,��쐼,14.3,66.2,0,0,0,0,0,0,1008.8,1022.8
2024-02-19T05:12:00+09:00,4.6,��쐼,8,��,14.4,66.2,0,0,0,0,0,0,1008.8,1022.8
2024-02-19T05:13:00+09:00,4.7,��쐼,8,��,14.4,66.2,0,0,0,0,0,0,1008.8,1022.8